London-Corbin, KY

3:09 AM EDT on July 24, 2019 (GMT -0400)
London-Corbin / McKee

Weather History for KLOZ - May, 2019

Change the Weather History Date:

Monday, May 13, 2019

  Actual Average Record
Temperature  
Mean Temperature 55 °F 64 °F  
Max Temperature 59 °F 76 °F 89 °F (1956)
Min Temperature 51 °F 52 °F 34 °F (2013)
Degree Days  
Heating Degree Days 10 3  
Month to date heating degree days 24 55  
Since 1 July heating degree days 4004 4156  
Cooling Degree Days 0 2  
Month to date cooling degree days 31 21  
Year to date cooling degree days 43 47  
Growing Degree Days 4 (Base 50)    
Moisture  
Dew Point 50 °F    
Average Humidity 81    
Maximum Humidity 100    
Minimum Humidity 62    
Precipitation  
Precipitation 0.01 in 0.18 in 1.68 in (1983)
Sea Level Pressure  
Sea Level Pressure 29.86 in    
Wind  
Wind Speed 8 mph (West)    
Max Wind Speed 17 mph    
Max Gust Speed 24 mph    
Visibility 10 miles    
Events Rain    
T = Trace of Precipitation, MM = Missing Value Source: NWS Daily Summary

Daily Weather History Graph

Daily Weather History Graph

Search for Another Location

Airport or City:

Astronomy

May. 13, 2019 Rise Set
Actual Time 6:29 AM EDT 8:35 PM EDT
Civil Twilight 6:01 AM EDT 9:04 PM EDT
Nautical Twilight 5:25 AM EDT 9:40 PM EDT
Astronomical Twilight 4:47 AM EDT 10:18 PM EDT
Moon 2:56 PM EDT (5/13) 3:36 AM EDT (5/13)
Length of Visible Light 15h 03m
Length of Day
14h 05m
Waxing Gibbous, 68% of the Moon is Illuminated
May 13
Waxing Gibbous
May 18
Full
May 26
Last Quarter
Jun 3
New
Jun 10
First Quarter

Hourly Weather History & Observations

Time (EDT) Temp. Dew Point Humidity Pressure Visibility Wind Dir Wind Speed Gust Speed Precip Events Conditions
12:01 AM 55.0 °F 54.0 °F 96% 29.81 in 6.0 mi WNW 9.2 mph - 0.00 in   Overcast
12:26 AM 54.0 °F 54.0 °F 100% 29.81 in 10.0 mi WNW 8.1 mph - 0.00 in   Overcast
12:43 AM 54.0 °F 54.0 °F 100% 29.81 in 8.0 mi WNW 6.9 mph - 0.00 in   Overcast
12:53 AM 54.0 °F 54.0 °F 100% 29.80 in 10.0 mi WNW 6.9 mph - 0.00 in   Overcast
1:16 AM 54.0 °F 54.0 °F 100% 29.81 in 10.0 mi West 8.1 mph - N/A   Overcast
1:27 AM 54.0 °F 54.0 °F 100% 29.81 in 9.0 mi WNW 6.9 mph - N/A   Overcast
1:40 AM 54.0 °F 54.0 °F 100% 29.82 in 8.0 mi West 5.8 mph - N/A   Overcast
1:53 AM 54.0 °F 54.0 °F 100% 29.80 in 10.0 mi West 4.6 mph - N/A   Overcast
2:03 AM 54.0 °F 54.0 °F 100% 29.81 in 10.0 mi West 4.6 mph - N/A   Overcast
2:28 AM 54.0 °F 54.0 °F 100% 29.81 in 10.0 mi WNW 6.9 mph - N/A   Overcast
2:53 AM 54.0 °F 53.1 °F 97% 29.78 in 10.0 mi West 5.8 mph - N/A   Overcast
3:25 AM 54.0 °F 54.0 °F 100% 29.80 in 10.0 mi West 4.6 mph - N/A   Overcast
3:32 AM 54.0 °F 53.1 °F 97% 29.80 in 10.0 mi West 5.8 mph - N/A   Overcast
3:40 AM 54.0 °F 53.1 °F 97% 29.80 in 10.0 mi West 4.6 mph - N/A   Overcast
3:50 AM 53.6 °F 53.6 °F 100% 29.80 in 10.0 mi WSW 5.8 mph - N/A   Overcast
3:53 AM 54.0 °F 53.1 °F 97% 29.78 in 10.0 mi WSW 5.8 mph - N/A   Overcast
4:00 AM 54.0 °F 53.1 °F 97% 29.80 in 10.0 mi WSW 5.8 mph - N/A   Overcast
4:25 AM 53.1 °F 53.1 °F 100% 29.81 in 10.0 mi SW 3.5 mph - N/A   Overcast
4:47 AM 53.6 °F 53.6 °F 100% 29.80 in 10.0 mi WSW 5.8 mph - N/A   Overcast
4:53 AM 54.0 °F 53.1 °F 97% 29.79 in 10.0 mi WSW 4.6 mph - N/A   Overcast
5:03 AM 53.1 °F 53.1 °F 100% 29.81 in 10.0 mi West 6.9 mph - N/A   Overcast
5:15 AM 53.1 °F 53.1 °F 100% 29.81 in 10.0 mi WSW 5.8 mph - N/A   Overcast
5:22 AM 53.1 °F 53.1 °F 100% 29.81 in 10.0 mi WSW 5.8 mph - N/A   Overcast
5:29 AM 53.1 °F 53.1 °F 100% 29.81 in 10.0 mi WSW 5.8 mph - N/A   Overcast
5:53 AM 53.1 °F 52.0 °F 96% 29.79 in 10.0 mi WSW 5.8 mph - N/A   Scattered Clouds
6:26 AM 53.1 °F 51.1 °F 93% 29.83 in 10.0 mi West 16.1 mph 24.2 mph 0.00 in Rain Light Rain
6:50 AM 51.8 °F 50.0 °F 94% 29.84 in 10.0 mi WNW 11.5 mph - 0.01 in   Overcast
6:53 AM 52.0 °F 50.0 °F 93% 29.83 in 10.0 mi WNW 10.4 mph - 0.01 in   Overcast
7:27 AM 51.1 °F 50.0 °F 96% 29.87 in 10.0 mi West 10.4 mph - N/A   Overcast
7:33 AM 51.1 °F 50.0 °F 96% 29.87 in 10.0 mi West 8.1 mph - N/A   Overcast
7:42 AM 51.1 °F 50.0 °F 96% 29.87 in 10.0 mi WNW 9.2 mph - N/A   Mostly Cloudy
7:53 AM 52.0 °F 50.0 °F 93% 29.87 in 10.0 mi West 8.1 mph - N/A   Overcast
8:53 AM 52.0 °F 48.0 °F 86% 29.88 in 10.0 mi WNW 11.5 mph - N/A   Overcast
9:53 AM 52.0 °F 46.0 °F 80% 29.90 in 10.0 mi West 10.4 mph 20.7 mph N/A   Overcast
10:53 AM 54.0 °F 45.0 °F 72% 29.91 in 10.0 mi WNW 11.5 mph 20.7 mph N/A   Overcast
11:02 AM 55.0 °F 46.0 °F 72% 29.91 in 10.0 mi WNW 13.8 mph 20.7 mph N/A   Overcast
11:53 AM 54.0 °F 44.1 °F 69% 29.91 in 10.0 mi West 15.0 mph - N/A   Overcast
12:53 PM 54.0 °F 44.1 °F 69% 29.93 in 10.0 mi West 11.5 mph - N/A   Overcast
1:53 PM 54.0 °F 45.0 °F 72% 29.93 in 10.0 mi West 11.5 mph - N/A   Overcast
2:53 PM 57.0 °F 45.0 °F 64% 29.92 in 10.0 mi West 11.5 mph 19.6 mph N/A   Overcast
3:53 PM 57.9 °F 45.0 °F 62% 29.92 in 10.0 mi WNW 10.4 mph 18.4 mph N/A   Mostly Cloudy
4:53 PM 57.9 °F 45.0 °F 62% 29.92 in 10.0 mi West 10.4 mph - N/A   Overcast
5:53 PM 55.9 °F 45.0 °F 67% 29.94 in 10.0 mi NW 6.9 mph - N/A   Overcast
6:53 PM 55.9 °F 45.0 °F 67% 29.95 in 10.0 mi NNW 8.1 mph - N/A   Overcast
7:53 PM 55.0 °F 45.0 °F 69% 29.97 in 10.0 mi NW 6.9 mph - N/A   Overcast
8:53 PM 54.0 °F 44.1 °F 69% 29.99 in 10.0 mi NNW 5.8 mph - N/A   Overcast
9:53 PM 53.1 °F 44.1 °F 71% 29.99 in 10.0 mi NW 4.6 mph - N/A   Overcast
10:53 PM 53.1 °F 45.0 °F 74% 30.01 in 10.0 mi NW 3.5 mph - N/A   Overcast
11:53 PM 52.0 °F 46.0 °F 80% 30.01 in 10.0 mi Calm Calm - N/A   Overcast